• In Italy
  • List of Countries
  • For 7 days
  • Water Temperature
  • Satellite Maps
  • Weather Map
  • Weather Widgets
  • user-avatar
    Login

    Hourly Weather Argentat

    Today, 22 January, Monday

    Time Temperature Precipitation Wind Pressure Humidity
    00:00 +10°C° 0 mm 5 mps 749 mmHg 95%
    01:00 +11°C° 0.2 mm 4 mps 749 mmHg 95%
    02:00 +11°C° 0.2 mm 4 mps 749 mmHg 95%
    03:00 +11°C° 0.2 mm 3 mps 748 mmHg 95%
    04:00 +11°C° 0.2 mm 3 mps 748 mmHg 95%
    05:00 +12°C° 0.2 mm 4 mps 748 mmHg 95%
    06:00 +12°C° 0.2 mm 4 mps 748 mmHg 95%
    07:00 +12°C° 0.2 mm 4 mps 748 mmHg 95%
    08:00 +12°C° 0.2 mm 4 mps 748 mmHg 95%
    09:00 +12°C° 0.2 mm 4 mps 748 mmHg 95%
    10:00 +12°C° 0.5 mm 4 mps 748 mmHg 95%
    11:00 +12°C° 0.5 mm 4 mps 748 mmHg 95%
    12:00 +12°C° 0.5 mm 4 mps 748 mmHg 94%
    13:00 +12°C° 0.9 mm 4 mps 747 mmHg 95%
    14:00 +12°C° 0.9 mm 4 mps 747 mmHg 95%
    15:00 +12°C° 0.9 mm 4 mps 747 mmHg 95%
    16:00 +12°C° 0.3 mm 4 mps 748 mmHg 94%
    17:00 +12°C° 0.3 mm 4 mps 748 mmHg 94%
    18:00 +12°C° 0.3 mm 3 mps 749 mmHg 94%
    19:00 +11°C° 0.2 mm 3 mps 749 mmHg 95%
    20:00 +12°C° 0.2 mm 2 mps 750 mmHg 96%
    21:00 +11°C° 0.2 mm 1 mps 750 mmHg 97%
    22:00 +11°C° 0 mm 1 mps 750 mmHg 97%
    23:00 +11°C° 0 mm 1 mps 751 mmHg 97%

    Tomorrow, 23 January, Tuesday

    Time Temperature Precipitation Wind Pressure Humidity
    00:00 +10°C° 0 mm 1 mps 751 mmHg 98%
    01:00 +10°C° 0 mm 1 mps 751 mmHg 98%
    02:00 +10°C° 0 mm 1 mps 751 mmHg 98%
    03:00 +10°C° 0 mm 1 mps 751 mmHg 98%
    04:00 +10°C° 0 mm 1 mps 752 mmHg 97%
    05:00 +10°C° 0 mm 1 mps 752 mmHg 96%
    06:00 +10°C° 0 mm 1 mps 752 mmHg 96%
    07:00 +10°C° 0 mm 1 mps 752 mmHg 95%
    08:00 +10°C° 0 mm 1 mps 752 mmHg 93%
    09:00 +10°C° 0 mm 1 mps 753 mmHg 92%
    10:00 +10°C° 0 mm 1 mps 753 mmHg 88%
    11:00 +11°C° 0 mm 1 mps 753 mmHg 85%
    12:00 +12°C° 0 mm 1 mps 753 mmHg 81%
    13:00 +12°C° 0 mm 1 mps 753 mmHg 81%
    14:00 +12°C° 0 mm 1 mps 752 mmHg 81%
    15:00 +13°C° 0 mm 1 mps 752 mmHg 81%
    16:00 +11°C° 0 mm 1 mps 752 mmHg 86%
    17:00 +9°C° 0 mm 0 mps 753 mmHg 91%
    18:00 +8°C° 0 mm 0 mps 753 mmHg 95%
    19:00 +8°C° 0 mm 0 mps 753 mmHg 96%
    20:00 +8°C° 0 mm 0 mps 753 mmHg 96%
    21:00 +9°C° 0 mm 1 mps 753 mmHg 96%
    22:00 +9°C° 0 mm 1 mps 753 mmHg 96%
    23:00 +9°C° 0 mm 1 mps 753 mmHg 96%

    Day after tomorrow, 24 January, Wednesday

    Time Temperature Precipitation Wind Pressure Humidity
    00:00 +9°C° 0 mm 1 mps 753 mmHg 96%
    01:00 +9°C° 0 mm 1 mps 753 mmHg 96%
    02:00 +8°C° 0 mm 1 mps 752 mmHg 96%
    03:00 +8°C° 0 mm 1 mps 752 mmHg 96%
    04:00 +8°C° 0 mm 1 mps 752 mmHg 96%
    05:00 +8°C° 0 mm 1 mps 751 mmHg 96%
    06:00 +8°C° 0 mm 1 mps 751 mmHg 96%
    07:00 +8°C° 0 mm 1 mps 751 mmHg 93%
    08:00 +9°C° 0 mm 1 mps 751 mmHg 90%
    09:00 +10°C° 0 mm 1 mps 751 mmHg 87%
    10:00 +12°C° 0 mm 2 mps 750 mmHg 81%
    11:00 +14°C° 0 mm 2 mps 750 mmHg 75%
    12:00 +14°C° 0 mm 3 mps 749 mmHg 69%
    13:00 +14°C° 0 mm 3 mps 749 mmHg 70%
    14:00 +14°C° 0 mm 3 mps 749 mmHg 70%
    15:00 +15°C° 0 mm 2 mps 748 mmHg 71%
    16:00 +14°C° 0 mm 2 mps 748 mmHg 77%
    17:00 +13°C° 0 mm 2 mps 749 mmHg 83%
    18:00 +10°C° 0 mm 2 mps 749 mmHg 89%
    19:00 +10°C° 0 mm 2 mps 748 mmHg 88%
    20:00 +10°C° 0 mm 2 mps 748 mmHg 88%
    21:00 +9°C° 0 mm 2 mps 748 mmHg 87%
    22:00 +9°C° 0 mm 3 mps 748 mmHg 87%
    23:00 +9°C° 0 mm 3 mps 748 mmHg 88%

    25 January, Thursday

    Time Temperature Precipitation Wind Pressure Humidity
    00:00 +9°C° 0 mm 3 mps 747 mmHg 88%
    01:00 +10°C° 0 mm 3 mps 747 mmHg 88%
    02:00 +10°C° 0 mm 3 mps 746 mmHg 88%
    03:00 +10°C° 0 mm 3 mps 746 mmHg 87%
    04:00 +10°C° 0 mm 3 mps 745 mmHg 88%
    05:00 +10°C° 0 mm 3 mps 745 mmHg 89%
    06:00 +10°C° 0 mm 3 mps 745 mmHg 90%
    07:00 +10°C° 0.1 mm 3 mps 745 mmHg 89%
    08:00 +10°C° 0.1 mm 3 mps 745 mmHg 88%
    09:00 +11°C° 0.1 mm 3 mps 745 mmHg 87%
    10:00 +10°C° 1.4 mm 3 mps 745 mmHg 89%
    11:00 +10°C° 1.4 mm 3 mps 745 mmHg 90%
    12:00 +10°C° 1.4 mm 3 mps 745 mmHg 92%
    13:00 +9°C° 1.6 mm 2 mps 745 mmHg 93%
    14:00 +8°C° 1.6 mm 2 mps 744 mmHg 94%
    15:00 +9°C° 1.6 mm 1 mps 744 mmHg 95%
    16:00 +8°C° 0.7 mm 1 mps 744 mmHg 96%
    17:00 +8°C° 0.7 mm 1 mps 744 mmHg 96%
    18:00 +7°C° 0.7 mm 0 mps 744 mmHg 97%
    19:00 +8°C° 0.5 mm 1 mps 745 mmHg 97%
    20:00 +8°C° 0.5 mm 1 mps 745 mmHg 97%
    21:00 +8°C° 0.5 mm 1 mps 745 mmHg 97%
    22:00 +7°C° 0.5 mm 1 mps 745 mmHg 97%
    23:00 +7°C° 0.5 mm 1 mps 746 mmHg 97%

    26 January, Friday

    Time Temperature Precipitation Wind Pressure Humidity
    00:00 +7°C° 0.5 mm 1 mps 746 mmHg 97%
    01:00 +7°C° 0.2 mm 1 mps 746 mmHg 97%
    02:00 +6°C° 0.2 mm 1 mps 746 mmHg 97%
    03:00 +5°C° 0.2 mm 0 mps 746 mmHg 97%
    04:00 +5°C° 0.1 mm 0 mps 747 mmHg 97%
    05:00 +4°C° 0.1 mm 0 mps 747 mmHg 97%
    06:00 +4°C° 0.1 mm 0 mps 747 mmHg 98%
    07:00 +4°C° 0 mm 0 mps 748 mmHg 97%
    08:00 +5°C° 0 mm 0 mps 748 mmHg 96%
    09:00 +6°C° 0 mm 1 mps 749 mmHg 95%
    10:00 +7°C° 0 mm 1 mps 749 mmHg 91%
    11:00 +7°C° 0 mm 1 mps 749 mmHg 87%
    12:00 +7°C° 0 mm 2 mps 749 mmHg 84%
    13:00 +7°C° 0.1 mm 2 mps 749 mmHg 82%
    14:00 +7°C° 0.1 mm 2 mps 749 mmHg 81%
    15:00 +7°C° 0.1 mm 2 mps 749 mmHg 80%
    16:00 +7°C° 0.1 mm 1 mps 750 mmHg 85%
    17:00 +6°C° 0.1 mm 1 mps 750 mmHg 90%
    18:00 +5°C° 0.1 mm 1 mps 751 mmHg 95%
    19:00 +4°C° 0 mm 1 mps 751 mmHg 95%
    20:00 +4°C° 0 mm 1 mps 752 mmHg 96%
    21:00 +4°C° 0 mm 1 mps 753 mmHg 97%
    22:00 +3°C° 0 mm 1 mps 753 mmHg 96%
    23:00 +3°C° 0 mm 1 mps 753 mmHg 96%

    27 January, Saturday

    Time Temperature Precipitation Wind Pressure Humidity
    00:00 +3°C° 0 mm 1 mps 753 mmHg 96%
    01:00 +3°C° 0 mm 1 mps 753 mmHg 96%
    02:00 +3°C° 0 mm 1 mps 754 mmHg 96%
    03:00 +3°C° 0 mm 1 mps 754 mmHg 96%
    04:00 +3°C° 0 mm 1 mps 754 mmHg 96%
    05:00 +3°C° 0 mm 1 mps 754 mmHg 96%
    06:00 +3°C° 0 mm 1 mps 754 mmHg 96%
    07:00 +2°C° 0 mm 2 mps 755 mmHg 93%
    08:00 +3°C° 0 mm 2 mps 755 mmHg 89%
    09:00 +3°C° 0 mm 3 mps 756 mmHg 86%
    10:00 +4°C° 0 mm 3 mps 756 mmHg 81%
    11:00 +5°C° 0 mm 3 mps 756 mmHg 76%
    12:00 +7°C° 0 mm 3 mps 756 mmHg 71%
    13:00 +7°C° 0 mm 3 mps 756 mmHg 70%
    14:00 +7°C° 0 mm 3 mps 755 mmHg 69%
    15:00 +7°C° 0 mm 3 mps 755 mmHg 68%
    16:00 +4°C° 0 mm 3 mps 756 mmHg 74%
    17:00 +3°C° 0 mm 3 mps 756 mmHg 79%
    18:00 +2°C° 0 mm 3 mps 756 mmHg 84%
    19:00 +2°C° 0 mm 2 mps 757 mmHg 85%
    20:00 +2°C° 0 mm 2 mps 757 mmHg 85%
    21:00 +2°C° 0 mm 2 mps 757 mmHg 86%
    22:00 +1°C° 0 mm 2 mps 758 mmHg 86%
    23:00 +1°C° 0 mm 2 mps 758 mmHg 86%
    Show more